GFSSW_prec_cloud_159.txt.gz
Cloud_Cover
100 96 100 74 40 100 100 91 100 100 100 100 100 51 0 0 1 11 29 0 0 0 0 0 0 0 0 0 0 0 0 0 0 0 32 100 100 100 13 18 100 82 100 100 100
100 100 100 100 100 100 100 94 100 100 100 100 100 46 14 0 27 14 0 0 0 0 0 0 0 0 0 0 0 0 0 0 0 0 0 11 100 100 4 73 100 100 100 100 100
100 100 100 100 100 100 100 100 100 100 100 100 100 100 1 81 49 0 0 0 0 0 0 0 0 0 0 0 0 0 0 0 0 0 0 4 40 96 7 5 79 100 100 100 100
100 100 100 100 100 100 100 58 100 100 100 96 100 98 11 68 0 0 0 0 0 0 0 0 0 0 0 0 0 0 0 0 0 0 0 0 0 0 5 2 3 100 100 100 100
100 100 100 100 100 100 100 100 100 100 100 80 100 100 71 96 28 0 1 0 0 0 0 0 0 0 0 0 0 0 0 0 0 0 0 0 0 0 1 5 5 95 100 100 100
100 100 100 100 100 100 100 100 100 71 100 100 100 99 83 98 0 0 0 0 0 0 0 0 0 0 0 0 0 0 0 0 0 0 3 0 0 0 0 5 5 7 22 45 100
100 100 100 100 100 100 100 100 97 100 100 100 100 70 100 35 0 0 0 0 0 0 0 0 0 0 0 0 0 0 0 0 0 0 2 16 0 0 0 0 5 6 100 81 100
100 100 100 100 100 100 93 100 100 100 100 100 30 77 34 0 0 3 3 5 1 0 0 0 0 0 0 0 0 0 0 0 0 0 2 29 22 0 0 0 0 1 70 88 11
100 100 100 100 100 100 28 21 26 40 98 43 42 44 16 4 7 4 5 5 0 0 0 3 1 1 2 0 0 0 0 0 0 0 0 5 85 0 0 0 0 0 0 15 99
100 97 60 73 97 49 16 0 0 0 49 22 42 65 0 2 11 99 31 3 0 3 1 6 5 5 2 0 0 0 0 0 0 0 0 0 100 76 1 0 0 0 0 0 0
100 100 99 55 85 24 51 15 20 0 55 0 0 0 3 11 18 81 50 9 79 8 3 0 4 5 4 0 0 0 0 0 0 0 0 0 95 100 4 0 0 0 0 4 5
100 100 23 14 14 43 2 98 95 15 17 2 0 0 2 5 5 78 94 100 100 38 3 3 2 0 0 0 3 0 0 0 0 0 0 0 85 100 36 0 0 0 0 3 4
97 22 52 44 11 0 0 37 96 42 27 3 0 3 89 99 83 5 2 8 58 18 3 0 0 0 0 1 5 2 2 0 0 5 0 0 88 100 89 2 0 1 0 2 0
98 22 24 34 0 0 0 0 96 0 5 5 5 96 99 100 96 68 16 16 5 8 2 1 25 45 0 0 4 5 2 4 0 17 0 5 100 100 94 4 0 0 0 0 0
50 10 13 33 0 0 0 0 66 2 5 3 31 9 26 100 100 41 61 100 99 60 5 53 1 42 37 0 1 0 4 5 4 76 5 20 94 100 60 5 5 0 0 0 0
7 0 16 18 6 0 0 0 12 4 6 5 11 100 95 96 100 100 100 100 100 100 91 71 5 3 1 5 1 35 5 46 17 100 82 91 82 100 28 1 0 0 0 0 0
0 0 14 0 0 0 0 0 4 51 68 96 83 81 24 91 92 100 100 100 100 100 100 96 94 6 5 5 21 84 59 100 100 100 6 95 98 100 5 5 0 0 0 0 0
0 0 0 0 0 0 0 2 29 67 100 100 96 46 64 100 100 98 100 100 100 100 100 89 73 10 87 4 1 5 74 100 100 79 21 49 100 100 5 5 5 0 2 2 0
0 0 0 0 0 0 0 30 91 100 100 100 99 100 94 100 99 100 5 34 96 100 100 100 52 89 100 76 5 94 98 100 100 3 8 4 50 100 52 5 5 2 5 4 0
4 0 0 0 0 0 0 9 57 98 100 100 100 100 100 100 100 100 6 6 57 26 8 68 65 100 49 96 8 0 92 100 22 75 96 0 17 100 76 17 2 5 5 5 1
0 0 0 0 0 0 4 5 5 50 100 87 100 100 100 100 100 100 76 6 68 98 92 100 100 100 100 28 4 48 100 89 34 68 1 0 1 100 96 17 5 5 19 14 46
0 0 0 0 0 2 0 5 3 5 90 39 100 100 100 100 100 100 100 98 93 100 100 100 100 100 99 63 31 100 100 56 97 4 5 1 5 100 100 100 34 36 57 61 55
0 0 0 0 0 0 0 0 0 5 38 61 99 100 100 100 100 100 100 98 98 99 92 83 99 100 100 100 100 100 100 96 100 31 5 5 38 100 100 99 5 22 100 100 100
0 0 5 1 0 0 0 4 3 0 5 23 36 61 100 100 100 100 100 100 100 100 100 98 76 64 5 99 100 100 100 75 100 38 5 24 74 8 76 88 82 92 100 100 100
0 1 5 5 0 0 0 1 3 3 6 20 20 97 88 100 100 100 100 100 100 100 100 37 60 30 90 100 100 100 76 20 38 62 100 92 3 30 9 91 58 100 100 100 100
5 5 7 87 0 0 0 0 2 2 19 5 52 38 80 80 100 100 100 100 100 100 100 6 99 91 100 100 100 100 92 100 23 58 10 5 98 20 100 100 100 100 100 100 100
5 16 100 6 0 0 0 0 0 5 0 26 8 20 33 100 100 100 100 100 100 100 64 100 82 100 100 100 100 100 100 6 97 13 27 64 84 99 100 100 100 100 100 100 62

GFSSW_prec_cloud_162.txt.gz
Cloud_Cover
100 100 100 100 100 100 100 100 100 100 100 100 100 100 100 25 1 0 76 0 0 0 0 0 0 0 0 0 0 0 0 0 0 0 0 1 79 100 0 0 0 100 100 32 100
100 100 100 100 100 100 100 100 100 100 100 100 100 100 100 1 20 6 0 0 0 0 0 0 0 0 0 0 0 0 0 0 0 0 0 0 3 16 4 0 0 100 100 75 91
100 100 100 100 100 100 100 100 100 100 100 45 100 100 100 0 28 0 0 0 0 0 0 0 0 0 0 0 0 0 0 0 0 0 0 0 0 0 4 0 0 10 100 100 65
11 100 100 100 100 100 100 100 100 93 98 100 96 100 100 36 0 0 9 0 0 0 0 0 0 0 0 0 0 0 0 0 0 0 0 0 0 0 0 4 1 0 75 100 97
100 100 100 100 100 100 100 100 100 82 99 100 92 100 28 30 0 0 0 0 0 0 0 0 0 0 0 0 0 0 0 0 0 0 0 0 0 0 0 0 5 0 1 100 100
100 100 93 100 100 100 100 100 100 100 100 100 100 98 64 94 2 0 0 0 0 0 0 0 0 0 0 0 0 0 0 0 0 0 0 2 0 0 0 0 1 3 0 14 100
100 100 85 99 100 100 100 100 100 99 100 100 61 81 71 50 5 4 0 0 0 0 0 0 0 0 0 0 0 0 0 0 0 0 0 4 3 0 0 0 0 0 5 4 37
100 74 97 100 100 89 60 100 88 74 97 54 25 44 38 0 1 5 13 5 0 0 0 0 0 0 0 0 0 0 0 0 0 0 0 0 25 0 0 0 0 0 0 4 1
100 99 100 100 72 95 5 88 2 5 64 4 22 6 15 0 0 4 100 97 42 4 1 4 2 3 2 0 0 0 0 0 0 0 0 2 3 5 1 0 0 0 3 3 0
100 100 100 100 100 32 14 15 0 4 37 0 43 34 0 0 2 0 1 42 100 95 7 4 4 4 4 3 1 0 0 0 0 0 0 0 10 5 3 0 0 0 0 3 73
100 100 100 100 100 100 26 0 0 0 3 0 0 0 0 4 60 5 64 0 69 100 100 4 4 5 5 4 1 0 0 0 0 0 0 0 4 5 1 0 0 0 0 1 36
100 100 100 100 82 89 0 0 80 4 18 0 0 1 5 5 6 18 100 2 0 4 97 100 9 2 5 5 5 0 0 0 0 0 0 0 1 62 1 0 0 0 0 30 100
100 100 100 79 32 2 0 0 97 10 31 0 2 5 3 5 5 81 100 22 4 3 3 99 100 8 0 0 0 0 0 0 0 0 0 0 0 100 0 0 0 0 0 1 93
100 100 71 79 0 0 0 0 43 0 1 2 5 60 73 100 14 69 71 22 84 3 5 8 7 11 0 0 0 4 1 0 0 10 4 0 0 100 2 0 0 0 0 0 18
46 82 47 82 0 0 0 0 0 0 5 3 25 19 61 41 6 97 100 98 22 69 100 58 0 0 2 0 0 0 0 2 0 57 84 0 0 95 34 0 0 3 0 0 6
24 14 34 13 3 0 0 0 0 4 12 5 7 72 48 34 33 76 100 98 94 97 100 100 18 8 0 0 0 4 1 5 5 66 97 0 0 100 33 0 0 0 1 27 99
0 0 13 0 0 0 0 0 3 9 92 52 63 93 18 40 97 32 88 100 100 100 81 91 65 95 3 4 3 2 36 38 61 100 38 0 0 60 4 0 0 0 0 9 100
0 0 0 0 0 0 0 1 45 52 99 99 99 87 12 97 85 100 85 100 100 99 100 100 100 98 4 2 0 4 4 22 5 28 3 21 8 18 0 0 0 0 1 69 83
0 0 0 0 0 0 0 35 84 88 93 99 100 79 65 100 100 100 60 100 99 92 17 72 81 6 5 4 1 14 6 2 100 3 15 37 0 0 0 0 0 0 0 0 1
0 0 0 0 0 0 0 3 5 37 71 66 100 100 97 99 100 100 98 100 100 100 71 5 66 36 74 27 21 1 49 17 100 29 99 8 9 0 0 0 1 0 0 28 8
0 0 0 0 0 0 0 0 0 2 31 83 100 100 100 100 100 100 96 100 100 100 8 6 45 100 100 88 7 49 68 72 100 42 69 0 57 1 1 0 0 0 0 3 58
0 0 0 0 3 2 0 0 2 0 5 49 96 100 100 100 100 100 100 99 100 100 100 98 97 100 100 100 10 99 5 28 100 52 6 0 26 1 0 0 0 0 53 63 100
0 0 0 0 0 0 0 0 0 0 5 7 88 100 100 100 100 100 100 100 100 100 100 98 88 98 100 95 98 90 48 100 100 100 94 3 92 2 1 0 0 43 100 100 100
0 0 0 0 0 0 0 0 0 0 0 5 42 70 99 100 100 100 100 100 100 100 100 98 77 95 92 34 42 60 99 100 100 97 9 13 95 5 40 60 78 87 95 100 100
0 0 0 0 0 7 0 0 0 4 0 6 6 42 77 100 100 100 100 100 100 100 100 100 95 62 100 100 82 100 100 100 100 50 24 4 73 5 36 35 31 100 100 100 100
3 0 3 18 0 0 0 0 0 0 3 5 5 5 5 100 100 100 100 100 100 100 100 100 62 96 100 100 100 100 100 100 64 6 5 5 27 35 100 72 82 100 100 100 100
14 15 96 3 0 0 0 0 0 0 0 4 5 5 5 54 100 100 100 100 100 100 100 91 100 100 100 100 100 100 100 6 5 2 59 44 96 100 100 100 100 100 100 100 100

GFSSW_prec_cloud_165.txt.gz
Cloud_Cover
100 100 100 100 100 100 100 72 60 98 38 85 95 100 95 65 0 0 3 0 0 0 0 0 0 0 0 0 0 0 0 0 0 0 0 0 0 7 3 0 0 2 50 55 32
41 100 100 100 100 100 36 42 98 75 100 100 65 82 100 7 5 0 0 0 0 0 0 0 0 0 0 0 0 0 0 0 0 0 0 0 0 0 2 0 0 0 81 100 48
100 100 100 100 100 100 100 100 100 92 94 100 91 2 3 6 0 0 1 0 0 0 0 0 0 0 0 0 0 0 0 0 0 0 0 0 0 0 0 0 0 0 0 98 100
100 100 100 100 100 100 100 100 100 100 100 100 100 6 6 0 0 0 54 0 0 0 0 0 0 0 0 0 0 0 0 0 0 0 0 0 0 0 0 0 0 0 0 6 85
100 100 100 100 100 100 100 100 100 100 100 100 100 75 3 3 0 0 0 0 0 0 0 0 0 0 0 0 0 0 0 0 0 0 0 0 0 0 0 0 0 0 0 0 10
100 99 100 100 100 100 100 100 88 100 100 100 97 69 16 16 0 0 0 0 0 0 0 0 0 0 0 0 0 0 0 0 0 0 0 0 0 0 0 0 0 0 0 2 0
100 100 100 100 100 92 100 100 100 100 87 100 89 30 85 0 0 0 0 0 0 5 0 0 0 0 0 0 0 0 0 0 0 0 0 0 1 0 0 0 0 0 0 18 5
100 97 94 100 99 98 100 100 56 29 0 2 2 78 26 0 0 0 0 0 2 1 5 0 2 2 0 0 0 0 0 0 0 0 0 0 0 0 0 0 0 0 1 5 1
100 100 100 100 99 85 89 100 19 0 0 0 12 8 0 0 4 5 0 0 0 1 4 17 3 3 4 1 0 0 0 0 0 0 0 0 0 5 0 0 0 0 0 0 5
100 100 100 100 100 100 70 2 7 0 14 0 21 0 0 2 4 0 0 0 6 1 30 90 20 5 5 4 0 5 1 0 0 0 0 0 0 0 4 0 0 0 0 0 16
100 100 100 100 100 100 15 0 0 0 0 0 0 0 0 0 0 5 5 20 5 63 5 100 100 64 5 4 1 5 5 0 0 0 0 0 1 0 0 0 0 0 0 0 0
92 100 100 100 100 100 0 0 0 0 0 0 0 1 4 5 5 5 4 5 6 39 5 63 100 35 5 9 6 2 5 5 0 0 0 0 0 5 0 0 0 0 0 0 0
93 100 100 100 72 0 0 0 0 0 11 0 0 4 8 13 5 58 5 14 97 100 14 38 93 100 35 5 8 5 2 4 5 1 0 0 0 5 0 0 0 0 0 0 0
89 100 100 95 0 0 0 0 0 0 0 0 0 11 32 22 34 32 7 5 88 38 5 33 23 55 100 11 4 5 1 0 5 5 2 0 0 0 4 0 0 0 0 0 0
1 81 96 84 0 0 0 0 0 0 0 1 4 5 89 6 20 5 69 80 87 61 100 68 5 35 96 100 6 0 0 1 0 2 40 2 1 0 2 0 0 0 0 9 2
0 3 3 10 0 0 0 0 0 0 5 5 5 96 100 4 5 80 55 60 100 99 69 69 27 46 22 5 9 4 0 4 5 17 18 2 2 5 3 0 0 0 0 2 3
0 0 0 0 0 0 0 0 0 6 5 12 16 60 100 5 6 5 76 100 100 100 74 99 62 66 5 6 2 47 5 4 18 37 0 0 44 0 5 0 0 0 0 1 0
0 0 0 0 0 0 0 0 19 5 28 44 90 30 8 6 18 51 91 85 100 100 100 86 99 81 5 4 4 0 5 7 1 1 0 4 4 0 5 0 0 0 0 7 33
0 0 0 0 0 0 0 0 8 5 34 76 43 100 36 84 45 94 100 86 99 99 90 100 64 100 99 93 4 5 4 3 99 5 2 2 0 0 5 0 0 0 0 57 42
0 0 0 0 0 0 0 0 0 0 5 7 94 100 100 98 97 100 100 100 100 97 76 89 20 4 64 99 10 3 5 15 40 42 3 0 0 5 3 0 0 0 0 36 3
0 0 0 0 0 0 0 0 0 0 5 5 56 100 100 100 100 100 100 100 100 100 100 96 76 36 91 70 67 50 49 5 14 67 3 0 0 5 0 1 0 0 0 1 96
0 0 0 0 0 0 0 0 0 0 4 5 8 84 100 100 100 100 100 100 100 100 100 100 78 93 100 99 100 99 61 68 0 46 5 1 0 2 0 3 0 0 19 67 7
0 1 0 0 0 0 0 1 0 0 0 5 10 76 98 100 100 100 100 100 100 100 100 100 100 100 100 96 99 84 48 5 39 100 17 4 46 5 0 2 5 3 90 100 100
0 0 0 0 0 0 3 5 0 0 0 0 5 6 99 100 100 100 100 100 100 100 100 100 76 90 100 100 82 42 44 47 73 97 28 18 100 5 3 0 47 100 100 100 100
0 0 0 0 0 0 20 4 0 0 0 2 5 5 82 100 100 100 100 100 100 100 100 100 71 100 95 100 100 67 49 86 58 42 46 59 100 88 5 1 0 100 100 100 100
0 0 0 22 18 0 0 3 0 0 0 0 5 5 5 100 100 100 100 100 100 100 100 100 100 91 79 100 100 100 100 100 89 100 100 100 100 81 7 0 94 100 100 100 100
5 13 92 1 0 0 5 5 0 1 0 0 5 6 5 39 98 100 100 100 100 82 100 100 100 100 100 100 100 100 100 100 100 42 100 92 89 76 100 78 98 100 100 100 100

GFSSW_prec_cloud_168.txt.gz
Cloud_Cover
100 100 100 100 100 24 100 100 45 100 74 100 98 3 0 0 0 0 0 0 0 0 0 0 0 0 0 0 0 0 0 0 0 0 0 0 0 0 0 0 0 0 2 68 97
100 100 100 100 100 100 71 59 100 80 96 100 100 6 0 0 2 0 0 0 0 0 0 0 0 0 0 0 0 0 0 0 0 0 0 0 0 0 0 0 0 0 0 54 98
100 36 59 91 100 100 71 50 100 65 98 32 16 27 0 16 0 0 0 0 0 0 0 0 0 0 0 0 0 0 0 0 0 0 0 0 0 0 0 0 0 0 0 0 22
99 88 96 100 100 94 82 55 94 85 88 83 19 32 0 4 0 2 0 0 0 0 0 0 0 0 0 0 0 0 0 0 0 0 0 0 0 0 0 0 14 0 0 0 0
73 100 98 100 100 100 100 100 100 100 97 100 69 2 24 0 0 0 0 0 0 0 0 0 0 0 0 0 0 0 0 0 0 0 0 0 0 0 0 0 0 0 0 2 2
97 100 98 100 100 100 100 100 100 100 100 51 60 2 30 1 0 0 0 0 0 0 8 0 0 0 0 0 0 0 0 1 0 0 0 0 0 0 0 0 0 4 0 4 1
100 100 100 100 100 100 100 100 100 100 32 0 0 89 3 0 0 0 0 0 0 0 0 0 0 0 0 0 0 0 0 0 0 0 0 0 0 0 0 0 0 0 5 0 5
31 100 100 84 97 89 100 100 62 0 0 0 0 46 0 0 0 0 0 0 0 0 0 0 2 3 1 2 3 0 0 0 0 0 0 0 0 0 0 0 0 0 1 4 4
96 100 100 100 100 92 100 100 1 0 0 2 38 1 0 0 0 0 0 0 0 0 0 0 2 91 12 5 5 1 0 0 0 0 0 0 0 0 0 0 0 0 0 5 5
23 100 100 100 100 95 60 7 0 3 0 0 0 1 3 0 0 5 4 5 2 0 1 4 26 97 86 97 64 37 0 0 0 0 0 0 0 0 0 0 0 0 0 5 1
28 100 100 100 100 66 6 0 0 17 0 0 0 0 0 0 5 5 1 0 2 5 46 51 82 100 100 100 100 77 11 5 0 0 0 0 0 0 0 0 0 0 0 0 0
0 84 100 100 99 8 8 0 0 0 1 0 0 0 0 4 41 71 6 10 5 89 100 100 100 99 100 65 90 27 5 4 1 0 0 0 0 0 0 0 0 0 0 0 0
0 47 100 100 8 33 0 0 0 0 0 0 0 3 5 13 63 5 10 55 68 99 100 100 100 100 100 10 5 5 6 20 3 0 5 1 0 0 0 0 0 0 0 0 0
0 28 80 0 47 0 0 0 0 0 17 27 14 76 70 94 100 34 27 8 88 94 100 100 98 89 100 98 9 0 2 1 0 0 1 0 0 5 0 0 0 0 0 0 0
0 0 5 82 0 0 0 0 0 0 12 3 13 5 98 80 9 100 5 98 67 95 40 100 91 9 100 100 100 6 0 0 0 16 5 5 2 0 0 0 0 0 0 0 0
0 0 2 14 0 0 0 0 0 3 25 4 10 70 61 99 94 68 100 51 38 94 99 100 97 79 99 56 100 78 5 1 0 60 50 0 0 0 0 0 0 0 0 4 0
0 0 4 0 0 0 0 0 6 0 0 16 15 56 8 58 100 90 99 88 100 100 87 98 100 100 81 69 66 99 59 15 16 5 5 3 0 0 0 0 0 0 0 0 5
0 33 46 0 0 0 0 0 0 0 3 2 82 49 78 70 49 100 93 90 96 100 84 90 100 100 99 35 97 5 81 90 51 1 1 5 0 0 0 0 0 0 0 0 35
6 0 0 0 0 0 0 0 0 0 3 5 38 61 69 87 99 94 93 93 100 100 96 92 81 18 66 100 33 66 40 88 47 0 43 13 0 5 0 0 0 0 0 0 8
0 0 0 0 0 0 0 0 0 3 5 6 100 76 96 38 96 97 100 98 100 100 100 96 80 88 90 100 82 100 92 88 24 0 30 36 0 5 4 0 0 0 0 3 99
0 0 0 0 0 0 0 0 0 0 3 5 8 99 30 98 100 100 100 100 100 100 100 100 100 97 74 93 100 100 66 64 45 1 100 0 0 5 5 0 0 0 0 33 89
0 0 0 0 3 0 0 0 0 0 5 5 5 67 56 93 100 100 100 100 100 100 100 100 100 86 99 78 100 100 98 91 36 0 1 78 3 5 5 0 0 0 0 84 55
0 0 4 3 0 4 0 0 0 0 0 5 5 53 88 98 100 100 100 100 100 100 100 100 100 66 100 100 100 99 77 100 37 7 30 86 40 0 5 0 0 0 54 100 100
0 0 0 0 0 4 3 0 5 1 0 4 1 52 100 83 100 100 100 100 100 100 100 100 66 77 97 100 100 99 99 100 99 39 43 72 100 2 3 0 0 3 73 100 99
0 0 0 0 0 4 9 1 1 1 0 0 3 39 61 100 100 100 100 100 100 100 100 100 86 98 100 100 100 100 91 100 100 45 99 62 100 100 62 63 0 6 71 98 100
5 0 0 0 0 5 5 5 1 1 4 0 5 5 12 100 100 100 100 100 100 100 100 100 100 99 100 100 100 72 99 77 95 28 5 89 74 95 57 13 58 100 100 99 70
5 5 34 0 1 4 5 3 4 5 0 2 5 8 94 61 60 100 100 100 100 100 100 100 100 100 100 100 95 100 53 33 5 0 34 28 47 100 43 62 69 100 100 100 100

GFSSW_prec_cloud_171.txt.gz
Cloud_Cover
100 52 0 5 14 9 11 61 28 1 4 5 4 0 0 0 0 0 0 0 0 0 0 0 0 0 0 0 0 0 0 0 0 0 0 0 0 0 0 0 0 1 0 0 76
30 99 91 100 33 13 16 27 55 94 22 36 0 0 0 0 2 0 0 0 0 0 0 0 0 0 0 0 0 0 0 0 0 0 0 0 0 0 0 0 0 2 0 0 96
88 99 87 98 80 14 16 82 94 100 100 100 63 0 0 1 0 0 0 0 0 0 0 0 0 0 0 0 0 0 0 0 0 0 0 0 0 0 0 0 0 0 0 0 0
98 100 85 97 99 91 95 100 100 100 100 43 8 0 0 0 1 2 0 0 0 0 0 0 0 0 0 0 0 0 0 0 0 0 0 0 0 0 0 0 0 2 4 0 0
97 100 99 61 100 100 81 100 99 100 100 3 0 0 0 1 1 0 0 0 0 0 2 3 0 0 0 0 0 0 0 0 0 0 0 0 0 0 0 0 0 0 0 0 0
1 76 100 72 100 100 100 86 100 97 5 0 0 0 0 4 0 0 0 0 0 2 8 5 3 0 0 0 0 0 0 5 5 0 0 0 0 0 0 0 0 0 0 0 5
2 39 86 100 69 98 100 100 89 1 0 0 0 5 0 0 0 0 0 0 0 0 4 14 5 0 0 0 0 0 0 5 2 5 0 0 0 0 0 0 0 0 0 0 3
0 44 100 100 100 100 100 100 26 1 0 0 0 2 1 0 0 1 0 0 0 0 1 6 1 5 5 3 1 0 0 0 0 4 3 0 0 0 0 0 0 0 0 0 0
0 100 100 100 100 72 39 60 2 0 0 0 5 0 4 0 4 0 1 1 0 5 0 4 3 5 58 5 8 9 2 1 0 0 0 0 0 0 0 0 0 0 0 0 5
0 2 80 100 100 17 0 10 0 7 0 0 0 2 6 2 5 0 0 0 5 5 30 5 5 59 86 100 64 100 94 5 20 0 0 0 0 1 0 0 0 0 0 0 5
0 0 4 99 41 0 36 1 0 21 4 2 1 0 5 5 7 9 5 5 7 73 99 81 100 100 100 100 100 100 100 100 100 47 0 0 4 0 0 0 0 0 0 0 4
0 0 22 0 0 0 9 0 0 0 2 0 0 2 3 5 76 84 4 15 88 98 69 100 100 100 100 100 95 100 100 45 100 100 23 3 0 0 0 0 0 0 0 0 0
0 0 17 2 0 21 0 0 0 0 3 15 4 5 5 27 32 100 5 56 96 100 100 100 98 81 100 100 100 100 100 100 100 84 57 90 8 0 0 0 0 0 0 0 0
0 0 0 1 47 0 0 0 0 0 91 97 79 42 66 59 65 36 66 44 93 97 100 82 97 100 86 100 100 100 100 53 91 83 5 0 1 0 0 0 0 0 0 0 0
0 0 0 82 0 0 0 0 0 1 84 0 38 0 12 88 25 41 12 51 86 100 88 88 56 99 100 100 100 100 95 87 5 5 64 4 0 0 0 0 0 0 0 0 0
0 0 4 13 0 0 0 0 0 25 16 3 5 4 82 100 100 41 100 78 68 100 100 100 90 99 100 97 100 100 50 5 5 5 4 11 2 0 0 0 0 0 0 2 0
0 0 39 0 0 0 0 1 21 0 0 1 0 4 76 100 100 100 98 99 86 85 100 100 86 100 99 88 100 100 100 41 35 63 2 0 4 0 4 0 0 0 0 4 5
0 32 0 0 0 0 0 4 0 0 0 0 3 7 95 74 26 38 100 99 100 100 100 100 100 95 82 60 93 100 82 100 100 80 0 4 0 46 2 2 0 0 0 4 5
0 0 0 0 0 0 0 2 0 0 0 0 5 5 70 100 85 100 100 93 100 100 100 100 100 20 100 100 95 100 100 100 99 85 100 84 3 98 0 1 0 0 0 0 5
0 0 0 0 0 0 0 0 0 0 0 0 5 29 98 100 61 100 83 72 100 100 100 100 100 100 99 25 98 97 98 100 99 21 100 100 15 100 0 2 0 2 1 1 21
0 0 0 0 0 0 0 0 0 0 0 3 5 38 95 100 64 100 100 100 100 100 100 100 100 100 94 89 100 86 88 18 94 100 100 100 100 100 2 0 0 2 4 4 89
0 0 0 0 0 0 0 0 0 0 0 0 5 12 100 100 90 100 100 100 100 100 100 100 100 100 96 100 99 97 98 100 100 34 4 82 100 100 4 2 0 0 0 79 16
4 3 5 3 0 1 1 4 0 0 0 0 4 18 70 94 100 100 100 95 100 100 100 100 100 92 94 96 100 97 36 88 99 73 94 73 16 90 88 30 0 0 0 73 50
4 4 3 1 0 0 4 5 5 5 0 0 0 68 100 99 100 100 100 100 100 100 100 100 30 83 99 96 97 100 100 88 80 100 8 8 86 100 100 90 9 3 5 13 1
4 5 5 5 46 5 23 5 5 5 4 0 3 5 73 100 100 99 100 100 100 98 100 100 100 100 100 100 100 100 80 76 100 91 86 0 76 100 56 100 86 23 3 3 100
12 5 78 77 96 99 48 5 5 5 5 0 4 3 50 100 100 84 100 100 98 100 100 100 100 100 100 100 100 100 100 100 99 100 69 34 100 100 63 5 99 100 5 11 100
94 100 100 100 100 72 72 40 5 13 5 0 5 5 65 47 51 100 74 77 98 95 100 100 100 100 100 100 92 99 48 81 100 50 40 88 97 100 35 47 88 17 38 99 96

GFSSW_prec_cloud_174.txt.gz
Cloud_Cover
72 58 56 65 20 65 65 74 90 21 4 0 0 0 0 0 0 0 0 0 0 0 0 0 0 0 0 0 0 0 0 0 0 0 0 0 0 0 0 0 32 34 100 99 4
100 100 97 100 100 100 100 100 80 88 81 46 7 0 0 0 0 0 0 0 0 0 0 0 0 0 0 0 0 0 0 0 0 0 0 0 0 0 0 0 0 6 68 5 3
76 83 99 89 100 100 100 100 98 100 100 80 55 2 0 1 0 0 0 0 0 0 0 0 0 0 0 0 0 0 0 0 0 0 0 0 0 0 0 0 0 3 18 5 1
2 15 70 100 100 100 100 100 100 100 100 100 17 3 1 18 0 0 0 0 0 0 0 0 0 0 0 0 0 0 0 0 0 0 0 0 0 0 0 0 0 2 93 8 0
20 100 59 19 96 100 100 100 100 100 72 20 10 0 2 1 1 0 0 0 0 0 0 5 2 0 0 0 0 0 0 0 0 0 0 0 0 0 0 0 0 0 77 100 0
0 27 44 48 37 94 100 83 29 11 7 2 0 0 1 23 0 0 0 0 0 0 3 4 4 1 0 0 0 0 0 0 0 0 0 0 0 0 0 0 0 0 0 24 0
0 0 100 100 100 92 100 100 1 0 0 0 0 0 0 0 0 0 0 0 0 0 0 4 2 2 0 0 0 0 0 0 0 0 0 0 0 0 0 0 0 0 0 10 92
0 0 0 36 79 71 88 92 14 4 0 0 0 0 4 0 0 0 0 0 4 0 0 0 1 0 0 0 0 0 0 0 0 0 0 4 0 0 0 0 0 0 0 0 73
23 0 0 24 16 10 19 1 3 0 0 0 0 0 13 0 2 1 0 0 0 0 0 0 2 0 4 5 3 4 4 1 0 0 0 0 0 0 0 0 0 0 0 0 0
9 0 0 2 2 0 0 2 3 9 0 0 0 1 6 4 4 0 0 0 0 5 12 7 5 5 20 12 74 79 90 89 12 1 0 0 0 1 0 0 0 0 0 0 0
3 0 0 0 0 0 4 0 0 2 0 2 4 2 4 2 2 11 5 3 4 8 23 93 40 59 90 99 28 100 79 15 5 2 66 0 4 4 1 0 0 0 0 0 0
0 0 0 0 2 0 4 0 0 0 0 4 0 3 4 4 26 47 12 4 63 72 63 79 67 54 95 88 100 13 82 100 88 5 94 94 20 0 2 2 0 0 0 0 0
1 0 0 0 1 22 0 0 0 0 0 10 3 3 4 2 14 100 60 71 88 98 56 84 89 10 5 32 56 97 82 100 64 32 10 7 100 27 1 4 14 0 0 0 0
0 0 0 2 50 0 0 0 0 0 33 5 35 88 4 82 15 40 19 9 74 70 90 99 100 53 45 94 56 13 91 98 100 7 100 41 58 100 2 92 5 1 0 0 0
0 0 0 23 0 0 0 0 0 0 95 0 28 0 5 100 58 90 6 5 62 100 100 98 100 72 99 100 74 100 100 99 34 50 100 87 95 98 2 0 3 0 0 0 0
0 0 2 0 0 0 0 0 2 25 2 28 2 0 5 80 78 65 100 36 80 49 86 100 97 27 35 90 77 100 100 100 41 16 92 96 100 1 89 0 1 0 0 0 0
0 0 0 0 0 0 0 7 13 2 0 0 0 3 65 97 5 100 91 100 100 97 100 100 100 100 100 91 95 100 100 100 100 52 8 0 94 45 0 0 0 0 0 0 0
0 0 0 0 0 0 0 3 39 0 0 0 0 5 81 46 48 100 81 68 100 100 100 100 100 100 100 90 88 99 100 100 100 92 85 91 100 0 60 1 0 0 0 0 0
0 0 0 0 0 0 2 0 0 0 0 0 1 5 49 66 90 100 100 100 63 100 100 100 100 100 100 100 18 89 100 100 100 100 26 98 60 98 100 100 7 0 0 0 0
0 0 0 0 0 0 2 0 0 0 0 0 5 5 53 100 72 96 84 99 100 100 100 100 100 100 100 100 17 50 100 89 100 100 97 96 83 96 20 100 65 0 0 0 0
0 0 0 0 0 0 1 5 5 3 2 5 0 5 35 86 82 100 97 86 100 99 80 100 95 100 100 89 69 80 100 100 100 100 100 100 98 33 90 66 10 0 0 0 0
0 0 0 0 1 4 0 5 5 5 5 3 3 3 4 46 69 70 100 100 97 100 100 76 100 57 12 78 93 92 5 100 81 100 9 100 100 100 98 0 0 5 3 0 0
0 0 0 0 0 4 5 48 41 31 61 56 5 5 12 88 100 87 100 100 100 100 100 100 99 100 100 100 73 50 8 16 88 65 4 99 100 100 100 70 90 32 100 2 2
0 0 5 5 5 3 5 86 100 100 92 14 5 6 67 28 52 52 93 79 100 100 100 100 100 100 100 100 100 87 8 18 4 39 35 13 99 100 51 100 96 100 100 7 9
0 0 0 0 4 69 91 100 100 100 99 62 35 5 13 7 44 50 77 100 80 100 100 100 100 100 100 100 100 100 100 65 47 5 79 2 100 100 100 86 74 100 96 89 92
5 2 2 74 6 70 100 100 100 100 100 100 100 10 12 60 97 19 72 100 48 81 100 100 100 100 100 100 100 100 100 100 21 62 3 0 100 100 100 6 50 74 89 87 1
0 0 2 5 24 100 100 100 100 100 100 100 100 50 72 26 5 23 54 72 85 100 100 100 100 100 100 100 100 100 100 100 76 78 0 0 24 100 100 79 100 100 2 90 21